Location: Demmingen
(48.6757°N, 10.4375°E)
Time: 15:00:33
(UTC+00:00)

deb Transtage 4 - Visible Passes

Search period start: 03 October 2024 00:00
Search period end: 13 October 2024 00:00
Orbit: 641 x 690 km, 32.6° (Epoch: 02 October)

Date Brightness Start Highest point End Pass type
(mag) Time Alt. Az. Time Alt. Az. Time Alt. Az.
04 Oct ? 04:27:20 10° S 04:28:26 11° S 04:29:33 10° SSE visible
06 Oct ? 03:46:35 10° SSW 03:47:57 11° S 03:49:19 10° SSE visible
07 Oct ? 04:17:52 10° SSW 04:19:02 11° S 04:20:13 10° S visible
08 Oct ? 03:08:13 11° S 03:08:13 11° S 03:08:57 10° SSE visible
09 Oct ? 03:38:13 11° S 03:38:28 11° S 03:39:27 10° S visible
